Flag for Brazil Weather past 2 weeks in Maceió, Alagoas, Brazil

Now
64 °F

Clear.


Feels Like: 64 °F
Forecast: 71 / 79 °F
Wind: No wind

Location: Maceio Aeroporto

Current Time: Aug 2, 2015 at 2:21:03 AM

Latest Report: Aug 2, 2015 at 2:00 AM


Visibility: 10 mi

Pressure: 30.04 "Hg

Humidity: 94%

Dew point: 63 °F

Location of MaceióLocation

Historic Weather in Maceió — Graph

°F

Maceió temperature yesterday

Maximum temperature yesterday: 79 °F (at 12:00 PM)
Minimum temperature yesterday: 66 °F (at 12:00 AM)
Average temperature yesterday: 72 °F

Past Weeks' High & Low Weather Summary

 TemperatureHumidityPressure
High86 °F (Jul 27, 5:00 AM)100% (Jul 18, 9:00 PM)30.12 "Hg (Jul 18, 9:00 PM)
Low66 °F (Jul 18, 2:00 AM)52% (Jul 27, 5:00 AM)29.98 "Hg (Jul 26, 3:00 PM)
Average72 °F86%30.06 "Hg
* Reported Jul 18 1:00 AM — Aug 2 1:00 AM, Maceió, Weather by CustomWeather, © 2015

Note: Actual official high and low records may vary slightly from our data, if they occured in-between our weather recording intervals... More about our weather records

Advertising

Maceió weather history for previous 24 hours

 ConditionsComfort  
Time TempWeatherWind HumidityBarometerVisibility
1:00 AM
Sun, Aug 2
66 °FPassing clouds.2 mph94%30.04 "HgN/A
12:00 AM68 °FPassing clouds.2 mph88%30.07 "HgN/A
11:00 PM
Sat, Aug 1
66 °FPassing clouds.2 mph83%30.07 "HgN/A
10:00 PM72 °FPassing clouds.3 mph83%30.07 "HgN/A
9:00 PM72 °FPassing clouds.2 mph78%30.07 "HgN/A
8:00 PM72 °FPassing clouds.5 mph78%30.04 "HgN/A
7:00 PM73 °FPassing clouds.3 mph74%30.04 "HgN/A
6:00 PM73 °FPassing clouds.7 mph74%30.04 "HgN/A
5:00 PM75 °FBroken clouds.8 mph69%30.04 "HgN/A
4:00 PM77 °FScattered clouds.15 mph65%30.01 "HgN/A
3:00 PM79 °FBroken clouds.22 mph61%30.01 "HgN/A
2:00 PM77 °FBroken clouds.13 mph69%30.04 "HgN/A
1:00 PM77 °FPartly sunny.17 mph69%30.04 "HgN/A
12:00 PM79 °FBroken clouds.17 mph65%30.07 "HgN/A
11:00 AM75 °FBroken clouds.13 mph78%30.09 "HgN/A
10:00 AM73 °FPartly sunny.12 mph83%30.09 "HgN/A
9:00 AM72 °FPartly sunny.10 mph83%30.09 "Hg4 mi
8:00 AM72 °FFog.7 mph83%30.07 "Hg3 mi
7:00 AM70 °FBroken clouds.12 mph94%30.07 "Hg4 mi
6:00 AM66 °FScattered clouds.2 mph100%30.04 "Hg5 mi
5:00 AM66 °FPassing clouds.2 mph94%30.04 "HgN/A
4:00 AM68 °FPassing clouds.2 mph94%30.04 "HgN/A
3:00 AM68 °FPassing clouds.6 mph94%30.04 "HgN/A
2:00 AM68 °FPassing clouds.5 mph94%30.04 "HgN/A
Weather by CustomWeather, © 2015

See weather overviewHow to use our weather pages